Weather History for KUIN - June, 2012

Change the Weather History Date:

Sunday, June 3, 2012

  Actual Average Record
Temperature  
Mean Temperature 67 °F 68 °F  
Max Temperature 82 °F 78 °F 99 °F (1934)
Min Temperature 52 °F 59 °F 43 °F (1964)
Degree Days  
Heating Degree Days 0 1  
Month to date heating degree days 5  
Since 1 June heating degree days 5  
Since 1 July heating degree days 5571  
Cooling Degree Days 2 5  
Month to date cooling degree days 14  
Year to date cooling degree days 100  
Since 1 June cooling degree days 14  
Growing Degree Days 17 (Base 50)    
Moisture  
Dew Point 53 °F    
Average Humidity 57    
Maximum Humidity 89    
Minimum Humidity 34    
Precipitation  
Precipitation 0.00 in 0.15 in 2.95 in (2008)
Month to date precipitation 0.45  
Year to date precipitation 14.54  
Sea Level Pressure  
Sea Level Pressure 29.85 in    
Wind  
Wind Speed 4 mph (SSW)    
Max Wind Speed 8 mph    
Max Gust Speed -    
Visibility 10 miles    
Events      
T = Trace of Precipitation, MM = Missing Value Source: NWS Daily Summary

Daily Weather History Graph

Daily Weather History Graph

Search for Another Location

Airport or City:

Trip Planner

Search our weather history database for the weather conditions in past years. The results will help you decide how hot, cold, wet, or windy it might be!

Date:

Astronomy

Jun. 03, 2012 Rise Set
Actual Time 5:37 AM CDT 8:29 PM CDT
Civil Twilight 5:05 AM CDT 9:01 PM CDT
Nautical Twilight 4:24 AM CDT 9:42 PM CDT
Astronomical Twilight 3:37 AM CDT 10:29 PM CDT
Moon 7:55 PM CDT (6/3) 4:46 AM CDT (6/3)
Length of Visible Light 15h 56m
Length of Day
14h 51m
Waxing Gibbous, 99% of the Moon is Illuminated
Jun 3
Waxing Gibbous
Jun 4
Full
Jun 11
Last Quarter
Jun 19
New
Jun 26
First Quarter

Hourly Weather History & Observations

Time (CDT) Temp. Heat Index Dew Point Humidity Pressure Visibility Wind Dir Wind Speed Gust Speed Precip Events Conditions
12:54 AM 55.0 °F - 50.0 °F 83% 29.86 in 10.0 mi SW 3.5 mph - N/A   Clear
1:54 AM 57.0 °F - 50.0 °F 77% 29.86 in 10.0 mi West 3.5 mph - N/A   Clear
2:54 AM 55.0 °F - 50.0 °F 83% 29.85 in 10.0 mi Calm Calm - N/A   Clear
3:54 AM 53.1 °F - 48.0 °F 83% 29.85 in 10.0 mi SSW 4.6 mph - N/A   Clear
4:54 AM 55.0 °F - 48.9 °F 80% 29.85 in 10.0 mi South 4.6 mph - N/A   Clear
5:54 AM 52.0 °F - 48.9 °F 89% 29.87 in 10.0 mi SW 6.9 mph - N/A   Clear
6:54 AM 57.0 °F - 52.0 °F 83% 29.88 in 10.0 mi SSW 3.5 mph - N/A   Clear
7:54 AM 66.9 °F - 53.1 °F 61% 29.89 in 10.0 mi SW 5.8 mph - N/A   Clear
8:54 AM 72.0 °F - 53.1 °F 51% 29.88 in 10.0 mi SSW 4.6 mph - N/A   Clear
9:54 AM 75.0 °F - 48.9 °F 40% 29.88 in 10.0 mi SW 4.6 mph - N/A   Clear
10:54 AM 77.0 °F - 48.9 °F 37% 29.90 in 10.0 mi SSW 6.9 mph - N/A   Clear
11:54 AM 79.0 °F - 48.0 °F 34% 29.87 in 10.0 mi South 6.9 mph - N/A   Clear
12:54 PM 81.0 °F - 51.1 °F 35% 29.88 in 10.0 mi SW 6.9 mph - N/A   Clear
1:54 PM 81.0 °F - 52.0 °F 36% 29.85 in 10.0 mi NW 4.6 mph - N/A   Clear
2:54 PM 82.0 °F 81.3 °F 54.0 °F 38% 29.83 in 10.0 mi NE 3.5 mph - N/A   Clear
3:54 PM 82.9 °F 81.8 °F 53.1 °F 36% 29.82 in 10.0 mi WNW 3.5 mph - N/A   Clear
4:54 PM 82.0 °F 81.4 °F 55.0 °F 39% 29.83 in 10.0 mi SSW 6.9 mph - N/A   Scattered Clouds
5:54 PM 81.0 °F 81.0 °F 57.0 °F 44% 29.82 in 10.0 mi South 5.8 mph - N/A   Clear
6:54 PM 80.1 °F 80.2 °F 55.9 °F 43% 29.82 in 10.0 mi Calm Calm - N/A   Scattered Clouds
7:54 PM 77.0 °F - 60.1 °F 56% 29.82 in 10.0 mi Calm Calm - N/A   Clear
8:54 PM 73.9 °F - 59.0 °F 59% 29.81 in 10.0 mi SE 4.6 mph - N/A   Clear
9:54 PM 73.0 °F - 59.0 °F 61% 29.80 in 10.0 mi SSE 5.8 mph - N/A   Clear
10:54 PM 72.0 °F - 57.9 °F 61% 29.82 in 10.0 mi South 8.1 mph - N/A   Scattered Clouds
11:54 PM 72.0 °F - 59.0 °F 64% 29.83 in 10.0 mi Calm Calm - N/A   Partly Cloudy